[[[{"header":{"parameterUnit":"kt","parameterCategory":2,"dx":1,"dy":1,"la1":30.253999710083008,"la2":30.299108505249023,"lo1":-89.0895004272461,"lo2":-89.04439544677734,"nx":28,"ny":28,"refTime":"2022-10-12T21:00:00:Z","depth":0,"parameterNumber":1,"parameterNumberName":"U-component_of_WINDS"},"data":[1.2723,1.2834,1.2867,1.301,1.3064,1.3169,1.3217,1.3284,1.3346,1.3477,1.3559,1.3606,1.3683,1.3791,1.3884,1.3903,1.3941,1.3957,1.3977,1.3873,1.3861,1.3849,1.3824,1.3964,1.3964,1.408,1.4081,1.4082,1.2647,1.2701,1.2785,1.289,1.2964,1.2968,1.3053,1.3115,1.3209,1.3286,1.3368,1.3487,1.3586,1.366,1.3762,1.3818,1.3828,1.3844,1.3841,1.3853,1.3743,1.3716,1.3835,1.3835,1.3835,1.3835,1.3835,1.3835,1.2518,1.2583,1.2665,1.2757,1.2819,1.2889,1.2958,1.3012,1.3097,1.3204,1.3228,1.3336,1.3421,1.3561,1.3616,1.3704,1.3692,1.3722,1.3729,1.3736,1.3739,1.357,1.3723,1.3723,1.3723,1.3722,1.3722,0,1.2434,1.2457,1.2539,1.2632,1.2701,1.2777,1.2852,1.2896,1.2957,1.3025,1.3126,1.3191,1.332,1.3421,1.3524,1.3577,1.3591,1.3595,1.3616,1.3606,1.3585,1.3599,1.3419,1.3591,1.359,1.3589,1.3588,1.3588,1.2308,1.2379,1.2479,1.2533,1.2582,1.2668,1.2727,1.2775,1.2835,1.2937,1.2993,1.3094,1.3177,1.3337,1.3402,1.3499,1.3507,1.3569,1.3522,1.351,1.3511,1.3506,1.3515,1.3578,1.3579,1.358,1.3581,0,1.2234,1.2286,1.2406,1.2499,1.2524,1.2598,1.2678,1.2746,1.2791,1.2891,1.2918,1.2989,1.3089,1.3144,1.327,1.3296,1.3424,1.3428,1.3395,1.3399,1.3462,1.3456,1.3652,1.3681,1.3535,1.3536,1.3537,0,1.2147,1.2239,1.2311,1.2378,1.2482,1.2526,1.263,1.2678,1.2749,1.2828,1.2851,1.2925,1.2983,1.3067,1.3105,1.3219,1.3242,1.327,1.3279,1.3268,1.3265,1.3303,1.3297,1.3295,1.3294,1.3293,1.3292,0,1.2027,1.2172,1.2281,1.2322,1.243,1.2481,1.2529,1.2608,1.2665,1.2749,1.2787,1.2881,1.2934,1.3008,1.3056,1.3022,1.3196,1.3159,1.3224,1.3223,1.326,1.3257,1.3416,1.3291,1.329,1.329,1.329,0,1.1964,1.2044,1.2194,1.2284,1.232,1.2393,1.2487,1.2561,1.2644,1.2671,1.2737,1.2759,1.286,1.282,1.2963,1.2905,1.2956,1.2991,1.2997,1.301,1.2964,1.3048,1.3192,1.321,1.3022,1.302,1.3018,0,1.1814,1.1977,1.2015,1.2157,1.224,1.2258,1.234,1.2411,1.2455,1.2534,1.2583,1.2673,1.2654,1.269,1.2753,1.2808,1.2883,1.2799,1.2918,1.2922,1.2896,1.3029,1.3037,1.3154,1.299,1.2993,1.2995,0,1.1702,1.1829,1.1851,1.19,1.1999,1.2068,1.2162,1.2259,1.2309,1.2386,1.2468,1.2595,1.2587,1.2645,1.2672,1.2735,1.2834,1.2718,1.2721,1.2738,1.298,1.2987,1.3007,1.2839,1.2842,1.2845,1.2973,0,1.1599,1.1686,1.1748,1.1854,1.1915,1.2006,1.2059,1.2118,1.2136,1.2179,1.2299,1.2372,1.2473,1.2508,1.2527,1.2652,1.264,1.263,1.2595,1.2682,1.2726,1.2743,1.2526,1.2525,1.2524,1.2524,0,0,1.1443,1.1568,1.1605,1.1695,1.175,1.1766,1.1858,1.1913,1.2024,1.2063,1.2043,1.2232,1.2292,1.2432,1.2463,1.2503,1.2532,1.2499,1.264,1.2652,1.2664,1.271,1.2728,1.2523,1.2523,1.2523,1.2522,0,1.1416,1.1471,1.156,1.1618,1.1705,1.1745,1.1766,1.1856,1.1887,1.2003,1.2016,1.2095,1.2243,1.2306,1.2357,1.2483,1.249,1.251,1.256,1.2632,1.2645,1.2657,1.2705,1.2721,1.2521,1.2521,1.2521,0,1.1317,1.1381,1.1429,1.155,1.1607,1.1691,1.1667,1.1757,1.1821,1.1836,1.195,1.1998,1.2085,1.2209,1.2266,1.2251,1.2449,1.2395,1.24,1.2408,1.2481,1.2497,1.2511,1.2324,1.2323,1.2322,0,0,1.1286,1.1366,1.1449,1.1547,1.1582,1.1643,1.1692,1.1715,1.1791,1.1821,1.1882,1.1957,1.2045,1.2101,1.2186,1.2314,1.2337,1.2369,1.2378,1.2385,1.2397,1.2472,1.2488,1.2318,1.2318,1.2318,0,0,1.1272,1.1371,1.1375,1.1495,1.1566,1.1655,1.1714,1.1723,1.1803,1.1799,1.1844,1.1866,1.1983,1.2029,1.1976,1.2175,1.214,1.2153,1.214,1.2153,1.2162,1.2149,1.1963,0,0,0,0,0,1.127,1.1359,1.1361,1.1389,1.1542,1.1653,1.1673,1.1711,1.1685,1.1732,1.1784,1.1787,1.201,1.1964,1.1993,1.2052,1.2274,1.2282,1.2289,1.2303,1.2315,1.2326,0,0,0,0,0,0,1.1282,1.1315,1.1359,1.1451,1.1486,1.165,1.1615,1.1628,1.1681,1.168,1.1777,1.179,1.1826,1.1953,1.1978,1.2033,1.1955,1.2277,1.2283,1.229,1.2307,1.2317,1.2326,0,0,0,0,0,1.1291,1.1318,1.1552,1.145,1.1481,1.1552,1.1612,1.1623,1.1665,1.1745,1.1758,1.1688,1.1826,1.185,1.1968,1.202,1.1938,1.1947,1.2281,1.2286,1.2291,1.2312,0,0,0,0,0,0,1.1298,1.1329,1.1559,1.157,1.1419,1.1544,1.1564,1.1618,1.1727,1.1741,1.1658,1.1656,1.1828,1.1846,1.1864,1.2014,1.1924,1.1933,1.1939,1.2285,1.2289,1.2293,0,0,0,0,0,0,1.1315,1.1338,1.1565,1.1523,1.1529,1.1536,1.1554,1.1659,1.1729,1.1635,1.1636,1.1656,1.1801,1.1844,1.1858,1.2021,1.1913,1.1922,1.1928,1.1932,1.2289,1.2292,0,0,0,0,0,0,1.1326,1.1346,1.1521,1.1525,1.1531,1.1654,1.163,1.1785,1.169,1.163,1.1682,1.1679,1.1799,1.1814,1.1853,1.201,1.2018,1.1914,1.192,1.1924,1.1927,0,0,0,0,0,0,0,1.1334,1.119,1.1495,1.1527,1.1532,1.1669,1.1672,1.1675,1.1689,1.1686,1.1683,1.1681,1.1862,1.1872,1.1882,1.2001,0,0,1.1913,1.1917,0,0,0,0,0,0,0,0,1.1183,1.1188,1.1496,1.1498,1.15,1.167,1.1672,1.1675,1.1688,1.1686,1.1684,1.1682,1.1865,1.1873,1.1881,0,0,0,0,0,0,0,0,0,0,0,0,0,0,0,1.1496,1.1498,0,1.167,1.1672,1.1674,1.1688,1.1686,1.1684,1.1683,1.1867,1.1874,1.188,0,0,0,0,0,0,0,0,0,0,0,0,0,0,0,0,0,0,0,0,0,0,0,0,0,0,0,0,0,0,0,0,0,0,0,0,0,0,0,0,0,0,0,0,0,0,0,0,0,0,0,0,0,0,0,0,0,0,0,0,0,0,0,0,0,0,0,0,0]}],[{"header":{"parameterUnit":"kt","parameterCategory":2,"dx":1,"dy":1,"la1":30.253999710083008,"la2":30.299108505249023,"lo1":-89.0895004272461,"lo2":-89.04439544677734,"nx":28,"ny":28,"refTime":"2022-10-12T21:00:00:Z","depth":0,"parameterNumber":2,"parameterNumberName":"V-component_of_WINDS"},"data":[2.6001,2.6112,2.6146,2.6289,2.6344,2.6449,2.6498,2.6565,2.6628,2.676,2.6842,2.689,2.6968,2.7078,2.7171,2.7191,2.723,2.7244,2.7266,2.7166,2.7155,2.7144,2.7119,2.7251,2.7252,2.7367,2.7368,2.7368,2.5927,2.5981,2.6066,2.6172,2.6246,2.6252,2.6337,2.64,2.6495,2.6572,2.6655,2.6775,2.6875,2.695,2.7054,2.711,2.7121,2.7136,2.7134,2.7148,2.7041,2.7014,2.7126,2.7126,2.7126,2.7126,2.7126,2.7126,2.5801,2.5866,2.5949,2.6042,2.6104,2.6175,2.6244,2.63,2.6385,2.6494,2.6519,2.6628,2.6715,2.6856,2.6913,2.7002,2.6992,2.7021,2.7029,2.7036,2.704,2.6874,2.702,2.702,2.702,2.702,2.702,0,2.572,2.5744,2.5827,2.5921,2.5991,2.6067,2.6144,2.6187,2.6251,2.632,2.6422,2.6487,2.6617,2.672,2.6825,2.6879,2.6897,2.6901,2.6922,2.6913,2.6892,2.6908,2.6735,2.6898,2.6897,2.6896,2.6896,2.6895,2.5599,2.5669,2.5772,2.5826,2.5876,2.5963,2.6022,2.6073,2.6135,2.6238,2.6294,2.6396,2.6481,2.6641,2.6709,2.6808,2.6819,2.6877,2.6834,2.6822,2.6824,2.6821,2.683,2.6886,2.6887,2.6888,2.6889,0,2.5528,2.5582,2.5703,2.5798,2.5824,2.5897,2.598,2.6048,2.6095,2.6196,2.6222,2.6297,2.6398,2.6457,2.6585,2.6613,2.674,2.6745,2.6711,2.6716,2.6777,2.6772,2.6959,2.6988,2.6848,2.6849,2.685,0,2.5447,2.5538,2.5614,2.5681,2.5785,2.5833,2.5935,2.5985,2.6059,2.6138,2.6165,2.624,2.6302,2.6387,2.6428,2.6542,2.6565,2.6595,2.6606,2.6595,2.6591,2.6632,2.6627,2.6622,2.6621,2.662,2.6619,0,2.5332,2.5479,2.5587,2.563,2.5741,2.5792,2.5841,2.5924,2.5982,2.6067,2.6106,2.6202,2.6255,2.6331,2.6383,2.6352,2.6522,2.649,2.6553,2.6552,2.659,2.6588,2.6735,2.6618,2.6618,2.6618,2.6617,0,2.5277,2.5358,2.5506,2.56,2.5637,2.5709,2.5805,2.588,2.5965,2.5995,2.6063,2.6088,2.6189,2.6154,2.6296,2.6241,2.6293,2.633,2.6335,2.6351,2.631,2.639,2.6521,2.6539,2.6362,2.636,2.6358,0,2.5132,2.5296,2.5338,2.5478,2.5562,2.5586,2.5667,2.5741,2.5787,2.5867,2.5919,2.6011,2.5996,2.6033,2.6095,2.6154,2.6226,2.6146,2.6268,2.6271,2.6247,2.6367,2.6374,2.6485,2.6331,2.6334,2.6336,0,2.5027,2.516,2.5182,2.5233,2.5336,2.5406,2.5498,2.5598,2.5649,2.5728,2.581,2.5938,2.5934,2.5994,2.6025,2.6087,2.6179,2.6074,2.6077,2.6094,2.6321,2.6328,2.6346,2.6187,2.619,2.6193,2.6315,0,2.4936,2.5024,2.5084,2.5194,2.5257,2.5347,2.5406,2.5465,2.5487,2.5534,2.5654,2.573,2.5834,2.5869,2.5892,2.6013,2.6003,2.5997,2.5969,2.6047,2.6089,2.6106,2.5902,2.5901,2.5901,2.59,0,0,2.4786,2.4913,2.4956,2.5046,2.5102,2.5125,2.5217,2.5274,2.539,2.543,2.5414,2.5606,2.5669,2.5809,2.5837,2.5878,2.5907,2.5877,2.6008,2.602,2.6031,2.6075,2.6092,2.59,2.59,2.5899,2.5899,0,2.4765,2.4824,2.4912,2.4973,2.5064,2.5108,2.5129,2.5225,2.5259,2.5375,2.5395,2.5474,2.5625,2.5691,2.5744,2.5861,2.5874,2.5888,2.5931,2.6002,2.6014,2.6025,2.6071,2.6086,2.5898,2.5898,2.5898,0,2.4675,2.4743,2.4791,2.4917,2.4977,2.5062,2.5047,2.5137,2.5202,2.5225,2.534,2.5391,2.5483,2.5605,2.5662,2.565,2.5841,2.579,2.5794,2.5803,2.5875,2.589,2.5903,2.5732,2.5731,2.573,0,0,2.4649,2.473,2.482,2.4917,2.4953,2.502,2.5071,2.5099,2.5179,2.5211,2.5277,2.5356,2.5445,2.5503,2.5589,2.5714,2.574,2.5767,2.5775,2.5781,2.5793,2.5867,2.5881,2.5727,2.5727,2.5727,0,0,2.4638,2.4745,2.4753,2.4872,2.4946,2.5043,2.5101,2.5114,2.5197,2.5194,2.5247,2.5271,2.5386,2.5436,2.5386,2.5581,2.5552,2.5565,2.5545,2.5556,2.5563,2.5551,2.5383,0,0,0,0,0,2.4646,2.4731,2.4737,2.4766,2.4925,2.5038,2.506,2.5104,2.5083,2.5128,2.5185,2.5194,2.542,2.5378,2.5407,2.5462,2.5686,2.5694,2.57,2.5704,2.5715,2.5724,0,0,0,0,0,0,2.4658,2.4693,2.4735,2.4834,2.4871,2.5036,2.501,2.5024,2.5079,2.5079,2.5183,2.5198,2.524,2.5366,2.5392,2.5443,2.5375,2.5689,2.5695,2.5701,2.5708,2.5716,2.5724,0,0,0,0,0,2.4668,2.4695,2.4939,2.4834,2.4865,2.4945,2.5007,2.5019,2.5062,2.5151,2.5166,2.5091,2.524,2.5264,2.5381,2.5431,2.5357,2.5367,2.5693,2.5698,2.5702,2.5712,0,0,0,0,0,0,2.4675,2.4708,2.4946,2.4957,2.4804,2.4937,2.4959,2.5014,2.5132,2.5147,2.5061,2.506,2.5241,2.526,2.5279,2.5424,2.5343,2.5353,2.5359,2.5697,2.5701,2.5704,0,0,0,0,0,0,2.4694,2.4718,2.4952,2.4912,2.492,2.4929,2.4949,2.5054,2.5133,2.5036,2.5038,2.5059,2.5214,2.5257,2.5272,2.5436,2.5332,2.5341,2.5348,2.5352,2.57,2.5703,0,0,0,0,0,0,2.4705,2.4726,2.491,2.4915,2.4922,2.5053,2.5024,2.5185,2.5096,2.503,2.5089,2.5086,2.5211,2.5226,2.5267,2.5424,2.5433,2.5333,2.5339,2.5343,2.5346,0,0,0,0,0,0,0,2.4714,2.4563,2.4878,2.4918,2.4923,2.5063,2.5066,2.5069,2.5095,2.5093,2.509,2.5088,2.5281,2.529,2.5301,2.5415,0,0,2.5332,2.5336,0,0,0,0,0,0,0,0,2.4555,2.4561,2.4878,2.4881,2.4883,2.5063,2.5066,2.5068,2.5095,2.5093,2.5091,2.5089,2.5283,2.5291,2.5299,0,0,0,0,0,0,0,0,0,0,0,0,0,0,0,2.4879,2.4881,0,2.5064,2.5066,2.5068,2.5095,2.5093,2.5091,2.509,2.5285,2.5292,2.5299,0,0,0,0,0,0,0,0,0,0,0,0,0,0,0,0,0,0,0,0,0,0,0,0,0,0,0,0,0,0,0,0,0,0,0,0,0,0,0,0,0,0,0,0,0,0,0,0,0,0,0,0,0,0,0,0,0,0,0,0,0,0,0,0,0,0,0,0,0]}]]]